Location: Assche-ter-Heiden
(50.9174°N, 4.1574°E)
Time: 19:32:17
(UTC+00:00)

Cosmos 2058 Rocket - Pass Details

Date: 20 January 2020
Orbit: 610 x 639 km, 82.5° (Epoch: 21 February)

Event Time Altitude Azimuth Distance (km) Brightness Sun altitude
Rises 06:32:16 0° 204° (SSW) 2,894 6.5 -9.8°
Reaches altitude 10° 06:34:33 10° 210° (SSW) 1,988 5.6 -9.5°
Maximum altitude 06:38:49 48° 285° (WNW) 816 3.3 -8.8°
Drops below altitude 10° 06:43:05 10° 1° (N) 1,988 5.5 -8.2°
Sets 06:45:23 0° 7° (N) 2,895 6.3 -7.9°
